Simultaneous Nadir Overpasses (SNOs) Predictions

Prediction of SNOs between NOAA-20 and NOAA-19 Satellite Orbit:

Table of predicted SNOs for the next 14.0 days since TLE Epoch: 8/23/2019
Index Date (NOAA-20) Time (NOAA-20) Lat,Lon (NOAA-20) SZA (NOAA-20 ) Date (NOAA-19) Time (NOAA-19) Lat,Lon (NOAA-19) SZA (NOAA-19 ) Distance(km) Time Diff (sec)
1 09/05/2019 15:53:25 -79.89, 83.95 104.78 09/05/2019 15:52:13 -79.91, 83.84 104.72 3.20 72
2 09/05/2019 16:44:11 79.92,-109.04 75.30 09/05/2019 16:43:18 79.90,-109.03 75.31 2.09 53
3 09/05/2019 17:34:56 -79.92, 58.24 104.69 09/05/2019 17:34:14 -79.90, 58.27 104.69 2.17 42
4 09/05/2019 18:25:41 79.92,-134.46 75.33 09/05/2019 18:25:18 79.92,-134.30 75.32 3.16 23
5 09/05/2019 19:16:25 -79.90, 33.12 104.71 09/05/2019 19:16:14 -79.92, 33.01 104.67 3.53 11
6 09/05/2019 20:07:11 79.93,-159.88 75.37 09/05/2019 20:07:19 79.91,-159.87 75.35 1.68 8
7 09/05/2019 20:57:56 -79.93, 7.41 104.62 09/05/2019 20:58:15 -79.92, 7.44 104.64 1.73 19
8 09/05/2019 21:48:41 79.93, 174.70 75.40 09/05/2019 21:49:19 79.93, 174.86 75.36 3.08 38
9 09/05/2019 22:39:26 -79.94, -18.01 104.59 09/05/2019 22:40:15 -79.94, -17.83 104.63 3.59 49
10 09/05/2019 23:30:11 79.94, 149.28 75.43 09/05/2019 23:31:20 79.93, 149.28 75.39 1.28 69




NCC Satellite Simultaneous Nadir Overpasses (SNOs) Prediction Service
